Weather History for Banff, AB

Change the Weather History Date:

Friday, January 17, 2014

  Actual Average Record
Temperature  
Mean Temperature 32 °F -  
Max Temperature 37 °F - - ()
Min Temperature 24 °F - - ()
Degree Days  
Heating Degree Days 34    
Moisture  
Dew Point 21 °F    
Average Humidity 68    
Maximum Humidity 82    
Minimum Humidity 51    
Precipitation  
Precipitation 0.14 in - - ()
Sea Level Pressure  
Sea Level Pressure 30.29 in    
Wind  
Wind Speed 8 mph ()    
Max Wind Speed 14 mph    
Max Gust Speed 21 mph    
T = Trace of Precipitation, MM = Missing Value Source: Averaged Metar Reports

Daily Weather History Graph

Daily Weather History Graph

Search for Another Location

Airport:

Trip Planner

Search our weather history database for the weather conditions in past years. The results will help you decide how hot, cold, wet, or windy it might be!

Date:

Astronomy

Jan. 17, 2014 Rise Set
Actual Time 8:37 AM MST 5:07 PM MST
Civil Twilight 7:59 AM MST 5:45 PM MST
Nautical Twilight 7:18 AM MST 6:26 PM MST
Astronomical Twilight 6:39 AM MST 7:06 PM MST
Moon 7:15 PM MST (1/17) 8:52 AM MST (1/17)
Length of Visible Light 9h 45m
Length of Day
8h 29m
Full, 98% of the Moon is Illuminated
Jan 17
Full
Jan 23
Last Quarter
Jan 30
New
Feb 6
First Quarter
Feb 14
Full

Hourly Weather History & Observations

Time (MST) Temp. Windchill Dew Point Humidity Pressure Visibility Wind Dir Wind Speed Gust Speed Precip Events Conditions
12:00 AM 32.0 °F 24.2 °F 22.3 °F 67% 30.28 in - West 9.2 mph 18.4 mph N/A   Unknown
1:00 AM 30.7 °F 23.3 °F 21.9 °F 70% 30.25 in - WSW 8.1 mph - N/A   Unknown
2:00 AM 29.8 °F 20.3 °F 21.4 °F 71% 30.25 in - WSW 11.5 mph 19.6 mph N/A   Unknown
3:00 AM 29.7 °F 21.3 °F 21.0 °F 70% 30.25 in - WSW 9.2 mph - N/A   Unknown
4:00 AM 30.2 °F 20.2 °F 21.0 °F 69% 30.24 in - WSW 12.7 mph 20.7 mph N/A   Unknown
5:00 AM 28.4 °F 21.2 °F 20.1 °F 71% 30.25 in - SSW 6.9 mph - N/A   Unknown
6:00 AM 29.3 °F 20.8 °F 20.1 °F 69% 30.25 in - SW 9.2 mph - N/A   Unknown
7:00 AM 27.0 °F 19.5 °F 19.6 °F 74% 30.25 in - SW 6.9 mph - N/A   Unknown
8:00 AM 26.4 °F 18.0 °F 19.2 °F 74% 30.26 in - WSW 8.1 mph - N/A   Unknown
9:00 AM 26.2 °F 17.8 °F 19.0 °F 74% 30.28 in - SW 8.1 mph - N/A   Unknown
10:00 AM 27.3 °F 17.1 °F 19.0 °F 71% 30.28 in - SW 11.5 mph 19.6 mph N/A   Unknown
11:00 AM 30.0 °F 23.2 °F 18.5 °F 62% 30.29 in - SW 6.9 mph - N/A   Unknown
12:00 PM 31.1 °F 21.9 °F 19.9 °F 63% 30.27 in - SW 11.5 mph 18.4 mph N/A   Unknown
1:00 PM 33.3 °F 23.7 °F 19.9 °F 58% 30.25 in - SW 13.8 mph - N/A   Unknown
2:00 PM 35.1 °F 26.9 °F 20.5 °F 55% 30.25 in - SW 11.5 mph 18.4 mph N/A   Unknown
3:00 PM 37.9 °F 32.7 °F 22.1 °F 53% 30.24 in - WSW 6.9 mph - N/A   Unknown
4:00 PM 37.6 °F 33.1 °F 21.0 °F 51% 30.25 in - WSW 5.8 mph - N/A   Unknown
5:00 PM 33.1 °F 27.7 °F 21.6 °F 63% 30.29 in - WSW 5.8 mph - N/A   Unknown
6:00 PM 30.4 °F 21.5 °F 21.6 °F 70% 30.32 in - SW 10.4 mph 17.3 mph N/A   Unknown
7:00 PM 29.5 °F 22.5 °F 21.6 °F 72% 30.35 in - WSW 6.9 mph - N/A   Unknown
8:00 PM 27.1 °F 21.8 °F 20.5 °F 76% 30.37 in - WSW 4.6 mph - N/A   Unknown
9:00 PM 27.9 °F 20.6 °F 21.4 °F 77% 30.38 in - WSW 6.9 mph - N/A   Unknown
10:00 PM 26.2 °F 20.7 °F 20.7 °F 79% 30.40 in - WSW 4.6 mph - N/A   Unknown
11:00 PM 24.6 °F 16.7 °F 19.9 °F 82% 30.39 in - SW 6.9 mph - N/A   Unknown